[ hide orbit diagram ]
For accurate long-term ephemerides, please instead use our Horizons system.This orbit viewer was implemented using two-body methods, and hence should not be used for determining accurate long-term trajectories (over several years or decades) or planetary encounter circumstances.
Orbital Elements at Epoch 2459200.5 (2020-Dec-17.0) TDB
Reference: JPL 27 (heliocentric ecliptic J2000)
Element | Value | Uncertainty (1-sigma) | Units |
e | .1610331458834361 | 3.3626e-08 | |
a | 2.252438272263658 | 6.5019e-09 | au |
q | 1.88972105137279 | 7.6227e-08 | au |
i | 2.450126357770596 | 3.6223e-06 | deg |
node | 1.636263602072528 | 7.6582e-05 | deg |
peri | 332.7028691948249 | 7.7243e-05 | deg |
M | 236.7216550901991 | 1.0464e-05 | deg |
tp | 2459623.326373436263 (2022-Feb-12.82637344) | 3.6237e-05 | TDB |
period | 1234.746415101757 3.38 | 5.3464e-06 1.464e-08 | d yr |
n | .2915578418345374 | 1.2624e-09 | deg/d |
Q | 2.615155493154527 | 7.549e-09 | au |
|
| | Orbit Determination Parameters
Additional Information
|
[ hide covariance matrix ]
Orbital Elements at Epoch 2456871.5 (2014-Aug-02.0) TDB
Reference: JPL 27 (heliocentric ecliptic J2000)
Element | Value | Uncertainty (1-sigma) | Units |
e | .1616809888117804 | 3.3709e-08 | |
q | 1.888218049632453 | 7.6502e-08 | au |
tp | 2457152.672630370304 (2015-May-10.17263037) | 3.5216e-05 | TDB |
node | 1.685168378824724 | 7.6482e-05 | deg |
peri | 332.5288226026557 | 7.7136e-05 | deg |
i | 2.452837836035042 | 3.6236e-06 | deg |
|
| | Orbit Determination Parameters
Additional Information
|
Orbit Covariance (6×6)
|
|
e |
q |
tp |
node |
peri |
i |
e |
1.136277150894487E-15 |
-2.572319563614026E-15 |
1.448532507263822E-13 |
-3.822563417467812E-15 |
1.828248882946858E-14 |
-7.785765807720556E-16 |
q |
-2.572319563614026E-15 |
5.852576170505094E-15 |
-3.415732471309951E-13 |
8.475459093317675E-15 |
-4.736240376446232E-14 |
1.777843514154276E-15 |
tp |
1.448532507263822E-13 |
-3.415732471309951E-13 |
1.240166262359322E-9 |
4.306142072912441E-12 |
3.617223092532688E-10 |
-5.859296563821701E-13 |
node |
-3.822563417467812E-15 |
8.475459093317675E-15 |
4.306142072912441E-12 |
5.849480813090166E-9 |
-5.842103857028561E-9 |
-9.131239080891252E-12 |
peri |
1.828248882946858E-14 |
-4.736240376446232E-14 |
3.617223092532688E-10 |
-5.842103857028561E-9 |
5.950028062532442E-9 |
8.976508302627276E-12 |
i |
-7.785765807720556E-16 |
1.777843514154276E-15 |
-5.859296563821701E-13 |
-9.131239080891252E-12 |
8.976508302627276E-12 |
1.313027831148872E-11 |
|
Physical Parameter Table
Parameter |
Symbol |
Value |
Units |
Sigma |
Reference |
Notes |
absolute magnitude |
H |
15.26 |
|
n/a |
E2021B10 |
|
|
14078 (1997 FQ3) Discovered 1997-Mar-31 by LINEAR at Socorro |
Reference: 20000320/Numbers.arc | Last Updated: 2004-04-19 |
|
[ show close-approach data ]
Alternate Designations
1997 FQ3 = 1991 PS15 = 1997 GS20 |
|
|